[[{"header":{"parameterUnit":"m.s-1","parameterCategory":1,"la1":30.2991,"la2":30.254,"lo1":-89.0895,"lo2":-89.0444,"dy":0.0017,"dx":0.0017,"nx":28,"ny":28,"refTime":"2025-08-10T03:00:00:Z","depth":0,"parameterNumber":2,"parameterNumberName":"U-component_of_WINDS"},"data":[0,0,0,0,0,0,0,0,0,0,0,0,0,0,0,0,0,0,0,0,0,0,0,0,0,0,0,0,0,0,0,0,0,0,0,0,0,0,0,0,0,0,0,0,0,0,0,0,0,0,0,0,0,0,0,0,0,0,-3.1709,-3.1709,0,-3.1742,-3.1743,-3.1743,-3.1599,-3.1594,-3.159,-3.1586,-3.1625,-3.1629,-3.1634,0,0,0,0,0,0,0,0,0,0,0,0,0,-3.1523,-3.1527,-3.1709,-3.171,-3.171,-3.1742,-3.1743,-3.1743,-3.1599,-3.1594,-3.1589,-3.1584,-3.1623,-3.1629,-3.1635,0,0,0,0,0,0,0,0,0,0,0,0,0,-3.1585,-3.1529,-3.1709,-3.1642,-3.1636,-3.1742,-3.1743,-3.1743,-3.1601,-3.1594,-3.1588,-3.1582,-3.1621,-3.1628,-3.1636,-3.1809,0,0,-3.1658,-3.1662,0,0,0,0,0,0,0,0,-3.1582,-3.1592,-3.1651,-3.1647,-3.1641,-3.166,-3.1691,-3.1766,-3.1602,-3.1614,-3.1586,-3.1579,-3.1642,-3.1647,-3.1667,-3.1811,-3.1812,-3.1659,-3.1664,-3.1667,-3.1669,0,0,0,0,0,0,0,-3.1578,-3.159,-3.1722,-3.1652,-3.1646,-3.1611,-3.1613,-3.1705,-3.1663,-3.1613,-3.1602,-3.1608,-3.1637,-3.1661,-3.1667,-3.1813,-3.1659,-3.1665,-3.167,-3.1673,-3.2099,-3.2106,0,0,0,0,0,0,-3.1582,-3.1587,-3.1721,-3.1723,-3.1595,-3.1619,-3.1621,-3.166,-3.1662,-3.1656,-3.1613,-3.1601,-3.1651,-3.1659,-3.1668,-3.1871,-3.1667,-3.1674,-3.1678,-3.2093,-3.2101,-3.2108,0,0,0,0,0,0,-3.1578,-3.1595,-3.172,-3.1652,-3.1666,-3.1629,-3.1674,-3.1664,-3.1687,-3.1662,-3.1655,-3.1644,-3.1646,-3.1658,-3.1774,-3.187,-3.1677,-3.1684,-3.2085,-3.2095,-3.2105,-3.2278,0,0,0,0,0,0,-3.1574,-3.1595,-3.166,-3.1655,-3.167,-3.1826,-3.168,-3.1669,-3.17,-3.1684,-3.1689,-3.1684,-3.1642,-3.1764,-3.1782,-3.1877,-3.169,-3.2076,-3.2089,-3.2101,-3.2264,-3.2293,-3.2318,0,0,0,0,0,-3.1567,-3.1709,-3.1664,-3.1681,-3.175,-3.1831,-3.184,-3.1787,-3.1708,-3.1773,-3.1757,-3.1684,-3.1857,-3.1777,-3.1796,-3.1895,-3.207,-3.2085,-3.21,-3.2252,-3.2287,-3.2318,0,0,0,0,0,0,-3.1727,-3.1707,-3.1657,-3.18,-3.1819,-3.1807,-3.1888,-3.1827,-3.1869,-3.1853,-3.1787,-3.179,-3.1918,-3.1918,-3.183,-3.2062,-3.1949,-3.1969,-3.2058,-3.2092,-3.2118,-3.2116,-3.1696,0,0,0,0,0,-3.1779,-3.1846,-3.1824,-3.1953,-3.1964,-3.1925,-3.1959,-3.1916,-3.1933,-3.194,-3.1933,-3.1953,-3.2011,-3.2051,-3.2104,-3.2263,-3.2262,-3.234,-3.2367,-3.2389,-3.2408,-3.2491,-3.2525,-3.2159,-3.2159,-3.2159,0,0,-3.1887,-3.1884,-3.1931,-3.1985,-3.1994,-3.2065,-3.1933,-3.2014,-3.2066,-3.1953,-3.2062,-3.2058,-3.2076,-3.2214,-3.2275,-3.2218,-3.2508,-3.2409,-3.2427,-3.2433,-3.2511,-3.2545,-3.2576,-3.2169,-3.2168,-3.2166,0,0,-3.212,-3.2125,-3.2232,-3.2243,-3.2258,-3.223,-3.2256,-3.2253,-3.2246,-3.2354,-3.227,-3.2332,-3.2434,-3.245,-3.2472,-3.2709,-3.2644,-3.2728,-3.2871,-3.2953,-3.2982,-3.3007,-3.3092,-3.3124,-3.2747,-3.2747,-3.2747,0,-3.2253,-3.2356,-3.2295,-3.2381,-3.2408,-3.2307,-3.2415,-3.2429,-3.2462,-3.2483,-3.2418,-3.2543,-3.2548,-3.2688,-3.2746,-3.2767,-3.2795,-3.2728,-3.2983,-3.3007,-3.303,-3.311,-3.3142,-3.2757,-3.2756,-3.2755,-3.2754,0,-3.2518,-3.2591,-3.2676,-3.2708,-3.2744,-3.2841,-3.2795,-3.2839,-3.2793,-3.2773,-3.2885,-3.2887,-3.2938,-3.2968,-3.2925,-3.3103,-3.3066,-3.2994,-3.2879,-3.3076,-3.3151,-3.3181,-3.2772,-3.2768,-3.2765,-3.2763,0,0,-3.2855,-3.285,-3.2882,-3.2895,-3.2903,-3.2958,-3.3051,-3.3099,-3.3138,-3.3163,-3.3239,-3.3327,-3.3259,-3.3284,-3.3242,-3.3314,-3.3502,-3.3231,-3.3231,-3.3282,-3.3698,-3.3753,-3.3789,-3.3458,-3.3463,-3.3468,-3.3696,0,-3.3083,-3.3239,-3.3187,-3.3346,-3.3413,-3.3317,-3.3397,-3.3412,-3.3395,-3.3449,-3.3431,-3.3494,-3.34,-3.3414,-3.3481,-3.3465,-3.3585,-3.3448,-3.3529,-3.3533,-3.3528,-3.3828,-3.3887,-3.4102,-3.3725,-3.373,-3.3733,0,-3.3371,-3.3405,-3.3572,-3.3567,-3.3593,-3.3666,-3.3705,-3.3758,-3.3773,-3.3755,-3.3782,-3.3724,-3.3815,-3.37,-3.3825,-3.3733,-3.3763,-3.376,-3.3767,-3.3773,-3.3645,-3.3843,-3.417,-3.4203,-3.3778,-3.3775,-3.3771,0,-3.3599,-3.3688,-3.3798,-3.3812,-3.381,-3.3863,-3.3865,-3.3873,-3.3905,-3.3939,-3.3959,-3.4005,-3.4031,-3.4068,-3.4024,-3.3944,-3.4155,-3.4036,-3.4144,-3.4145,-3.4193,-3.4191,-3.453,-3.4213,-3.4212,-3.4212,-3.4211,0,-3.386,-3.3965,-3.39,-3.3969,-3.4084,-3.4022,-3.4138,-3.4129,-3.4136,-3.4202,-3.4122,-3.4185,-3.4123,-3.4181,-3.4147,-3.4255,-3.4267,-3.4256,-3.4246,-3.4264,-3.4265,-3.4283,-3.4267,-3.422,-3.4218,-3.4217,-3.4215,0,-3.4135,-3.4096,-3.4209,-3.4197,-3.4197,-3.4282,-3.4272,-3.4335,-3.4312,-3.4395,-3.4411,-3.4376,-3.4439,-3.4399,-3.4464,-3.4441,-3.4583,-3.4552,-3.4578,-3.4569,-3.4679,-3.467,-3.5042,-3.5088,-3.4741,-3.4744,-3.4747,0,-3.4304,-3.4382,-3.4378,-3.4415,-3.4422,-3.4483,-3.4515,-3.4457,-3.4493,-3.4515,-3.4575,-3.4631,-3.4673,-3.4779,-3.476,-3.4809,-3.4779,-3.4906,-3.4786,-3.4801,-3.4781,-3.4777,-3.4784,-3.4931,-3.4935,-3.4938,-3.4941,0,-3.4608,-3.4584,-3.4632,-3.4674,-3.4713,-3.4744,-3.4768,-3.4803,-3.4745,-3.479,-3.4853,-3.4885,-3.495,-3.5007,-3.5048,-3.5051,-3.4987,-3.4979,-3.5006,-3.5025,-3.5037,-3.5032,-3.4644,-3.4971,-3.4968,-3.4965,-3.4964,-3.4963,-3.4835,-3.49,-3.4907,-3.4963,-3.4974,-3.4998,-3.5056,-3.5039,-3.5091,-3.5138,-3.5101,-3.5176,-3.5188,-3.5235,-3.5246,-3.5305,-3.5253,-3.5293,-3.5303,-3.5314,-3.5329,-3.5027,-3.5312,-3.5311,-3.531,-3.5309,-3.5309,0,-3.5135,-3.5134,-3.5186,-3.5221,-3.5265,-3.5199,-3.5222,-3.5264,-3.533,-3.5346,-3.5388,-3.5461,-3.5515,-3.55,-3.5549,-3.5599,-3.5571,-3.5614,-3.5609,-3.5611,-3.5373,-3.5344,-3.5635,-3.5635,-3.5635,-3.5635,-3.5635,-3.5635,-3.5296,-3.5402,-3.5379,-3.549,-3.5489,-3.5561,-3.5579,-3.5601,-3.5613,-3.5697,-3.5741,-3.573,-3.5733,-3.5781,-3.5829,-3.5823,-3.5845,-3.5899,-3.5882,-3.566,-3.5628,-3.5597,-3.557,-3.5904,-3.5904,-3.6115,-3.6117,-3.6119]},{"header":{"parameterUnit":"m.s-1","parameterCategory":1,"la1":30.2991,"la2":30.254,"lo1":-89.0895,"lo2":-89.0444,"dy":0.0017,"dx":0.0017,"nx":28,"ny":28,"refTime":"2025-08-10T03:00:00:Z","depth":0,"parameterNumber":3,"parameterNumberName":"V-component_of_WINDS"},"data":[0,0,0,0,0,0,0,0,0,0,0,0,0,0,0,0,0,0,0,0,0,0,0,0,0,0,0,0,0,0,0,0,0,0,0,0,0,0,0,0,0,0,0,0,0,0,0,0,0,0,0,0,0,0,0,0,0,0,-1.7643,-1.7643,0,-1.7658,-1.7658,-1.7658,-1.7673,-1.7673,-1.7673,-1.7673,-1.7686,-1.7686,-1.7686,0,0,0,0,0,0,0,0,0,0,0,0,0,-1.7626,-1.7626,-1.7643,-1.7644,-1.7644,-1.7658,-1.7658,-1.7658,-1.7673,-1.7673,-1.7673,-1.7673,-1.7686,-1.7686,-1.7686,0,0,0,0,0,0,0,0,0,0,0,0,0,-1.7636,-1.7626,-1.7643,-1.7653,-1.7654,-1.7657,-1.7658,-1.7658,-1.7673,-1.7673,-1.7673,-1.7674,-1.7686,-1.7686,-1.7686,-1.7681,0,0,-1.7687,-1.7687,0,0,0,0,0,0,0,0,-1.7636,-1.7637,-1.7651,-1.7652,-1.7653,-1.7664,-1.7656,-1.7666,-1.7673,-1.7665,-1.7673,-1.7674,-1.7678,-1.7679,-1.7681,-1.7682,-1.7683,-1.7687,-1.7687,-1.7687,-1.7687,0,0,0,0,0,0,0,-1.7635,-1.7636,-1.7649,-1.7651,-1.7653,-1.7655,-1.7657,-1.7658,-1.767,-1.7666,-1.7667,-1.7669,-1.7679,-1.7681,-1.7681,-1.7683,-1.7687,-1.7687,-1.7687,-1.7687,-1.7678,-1.7678,0,0,0,0,0,0,-1.7633,-1.7636,-1.7648,-1.7649,-1.7645,-1.7655,-1.7657,-1.766,-1.767,-1.7672,-1.7668,-1.7669,-1.768,-1.7681,-1.7682,-1.7675,-1.7687,-1.7687,-1.7688,-1.7679,-1.7678,-1.7678,0,0,0,0,0,0,-1.7633,-1.7634,-1.7648,-1.7643,-1.7645,-1.7655,-1.7658,-1.766,-1.7662,-1.7672,-1.7674,-1.7668,-1.7681,-1.7682,-1.7681,-1.7676,-1.7688,-1.7688,-1.7679,-1.7678,-1.7678,-1.7663,0,0,0,0,0,0,-1.7632,-1.7634,-1.7633,-1.7643,-1.7645,-1.7648,-1.7658,-1.766,-1.7663,-1.7664,-1.7672,-1.7674,-1.7681,-1.7681,-1.7681,-1.7677,-1.7688,-1.7679,-1.7679,-1.7678,-1.7664,-1.7662,-1.766,0,0,0,0,0,-1.7632,-1.7628,-1.7633,-1.7634,-1.7644,-1.7647,-1.7649,-1.7657,-1.7662,-1.7661,-1.7667,-1.7674,-1.7677,-1.7681,-1.7681,-1.7677,-1.768,-1.7679,-1.7678,-1.7665,-1.7662,-1.766,0,0,0,0,0,0,-1.7617,-1.763,-1.7635,-1.7635,-1.764,-1.765,-1.7648,-1.7655,-1.7658,-1.7659,-1.7669,-1.7671,-1.7669,-1.7673,-1.7677,-1.7671,-1.7679,-1.7678,-1.7669,-1.7667,-1.7665,-1.7663,-1.7688,0,0,0,0,0,-1.7614,-1.7617,-1.7627,-1.7626,-1.7628,-1.7638,-1.764,-1.7646,-1.7651,-1.7653,-1.7659,-1.7663,-1.7665,-1.7666,-1.7669,-1.7665,-1.7666,-1.7662,-1.766,-1.7658,-1.7657,-1.7654,-1.7652,-1.7675,-1.7675,-1.7675,0,0,-1.7608,-1.7615,-1.7616,-1.7623,-1.7628,-1.7629,-1.7639,-1.7641,-1.7641,-1.7653,-1.7653,-1.7657,-1.7663,-1.766,-1.7659,-1.7663,-1.7651,-1.7657,-1.7656,-1.7656,-1.7653,-1.7651,-1.7649,-1.7674,-1.7674,-1.7675,0,0,-1.7596,-1.7603,-1.7602,-1.7606,-1.7613,-1.7619,-1.7619,-1.7627,-1.7631,-1.7631,-1.7639,-1.7639,-1.7643,-1.7646,-1.7648,-1.7636,-1.7642,-1.7636,-1.7627,-1.7623,-1.7621,-1.7619,-1.7614,-1.7612,-1.7635,-1.7635,-1.7635,0,-1.7587,-1.759,-1.76,-1.76,-1.7603,-1.7614,-1.7612,-1.7615,-1.7622,-1.7623,-1.7628,-1.7631,-1.7636,-1.7633,-1.763,-1.7632,-1.7631,-1.7635,-1.7621,-1.7619,-1.7618,-1.7612,-1.761,-1.7635,-1.7635,-1.7635,-1.7635,0,-1.7578,-1.758,-1.7578,-1.7584,-1.7587,-1.7586,-1.7594,-1.7595,-1.7601,-1.7606,-1.7605,-1.761,-1.7613,-1.7613,-1.7619,-1.7611,-1.7613,-1.7619,-1.7627,-1.7615,-1.7609,-1.7608,-1.7633,-1.7634,-1.7634,-1.7634,0,0,-1.7559,-1.757,-1.7569,-1.7571,-1.7579,-1.758,-1.7579,-1.7582,-1.7582,-1.7586,-1.7584,-1.7586,-1.7591,-1.7594,-1.76,-1.7597,-1.7585,-1.7603,-1.7603,-1.7598,-1.7574,-1.7568,-1.7566,-1.7589,-1.7589,-1.7588,-1.7573,0,-1.7548,-1.7547,-1.7555,-1.7552,-1.7553,-1.7563,-1.7561,-1.7565,-1.757,-1.757,-1.7575,-1.7576,-1.7583,-1.7584,-1.7582,-1.7587,-1.758,-1.7588,-1.7586,-1.7586,-1.7583,-1.7564,-1.7558,-1.7544,-1.7571,-1.7571,-1.7571,0,-1.7535,-1.7538,-1.7535,-1.7542,-1.7542,-1.7541,-1.7544,-1.7545,-1.7548,-1.7552,-1.7553,-1.756,-1.7558,-1.7566,-1.7562,-1.7568,-1.7567,-1.7569,-1.7569,-1.7568,-1.7577,-1.7561,-1.7539,-1.7536,-1.7568,-1.7568,-1.7568,0,-1.752,-1.7523,-1.7521,-1.7523,-1.7531,-1.753,-1.7533,-1.7537,-1.7538,-1.754,-1.754,-1.7542,-1.7542,-1.7543,-1.7549,-1.7554,-1.7544,-1.7553,-1.7545,-1.7545,-1.7542,-1.7542,-1.7518,-1.7544,-1.7544,-1.7544,-1.7544,0,-1.7506,-1.7504,-1.7514,-1.7513,-1.751,-1.7518,-1.7515,-1.7518,-1.7522,-1.7521,-1.7529,-1.7528,-1.7536,-1.7535,-1.754,-1.7535,-1.7536,-1.7537,-1.7538,-1.7536,-1.7535,-1.7535,-1.7536,-1.7543,-1.7543,-1.7543,-1.7543,0,-1.7488,-1.7496,-1.7494,-1.7501,-1.7503,-1.75,-1.7505,-1.7504,-1.7508,-1.7506,-1.7506,-1.7513,-1.7512,-1.7519,-1.7519,-1.7522,-1.7514,-1.7518,-1.7513,-1.7513,-1.7505,-1.7505,-1.7479,-1.7475,-1.7504,-1.7504,-1.7504,0,-1.7479,-1.7477,-1.7484,-1.7483,-1.7486,-1.7486,-1.7486,-1.7494,-1.7494,-1.7498,-1.7495,-1.7495,-1.7495,-1.7492,-1.7497,-1.7497,-1.7499,-1.749,-1.7499,-1.7496,-1.7497,-1.7497,-1.7495,-1.7488,-1.7488,-1.7487,-1.7487,0,-1.7461,-1.7464,-1.7465,-1.7466,-1.7467,-1.7468,-1.747,-1.7469,-1.7478,-1.7477,-1.7476,-1.7476,-1.7476,-1.7475,-1.7475,-1.7477,-1.7483,-1.7484,-1.7482,-1.7479,-1.7476,-1.7476,-1.7506,-1.7485,-1.7485,-1.7485,-1.7485,-1.7485,-1.7446,-1.7444,-1.7448,-1.7448,-1.745,-1.7451,-1.745,-1.7454,-1.7453,-1.7454,-1.7458,-1.7456,-1.7458,-1.7459,-1.746,-1.7457,-1.7461,-1.7459,-1.7458,-1.7457,-1.7454,-1.7477,-1.7458,-1.7458,-1.7458,-1.7458,-1.7458,0,-1.7427,-1.743,-1.743,-1.7432,-1.7431,-1.7437,-1.7439,-1.7438,-1.7436,-1.7438,-1.7438,-1.7435,-1.7434,-1.7438,-1.7436,-1.7433,-1.7436,-1.7432,-1.7432,-1.7432,-1.7452,-1.7453,-1.743,-1.743,-1.743,-1.743,-1.743,-1.743,-1.7417,-1.7413,-1.7417,-1.7414,-1.7416,-1.7414,-1.7414,-1.7415,-1.7416,-1.7413,-1.7412,-1.7415,-1.7417,-1.7415,-1.7413,-1.7414,-1.7413,-1.7408,-1.741,-1.7428,-1.7431,-1.7433,-1.7435,-1.7408,-1.7408,-1.739,-1.739,-1.739]}]]